Regional Weather Roundup
Issued by NWS Green Bay, WI

Current Version | Previous Version | Text Only | Print | Product List | Glossary On
Versions: 1 2 3 4 5 6 7 8 9 10 11 12 13 14 15 16 17 18 19 20 21 22 23 24 25 26 27 28 29 30 31 32 33 34 35 36 37 38 39 40 41 42 43 44 45 46 47 48 49 50
000
ASUS43 KGRB 210411
RWRGRB

NORTH-CENTRAL AND NORTHEAST WISCONSIN REGIONAL WEATHER ROUNDUP
NATIONAL WEATHER SERVICE GREEN BAY WI
1000 PM CST MON NOV 20 2017

WIZ005-009-010>012-018-019-210500-
NORTH CENTRAL WISCONSIN

CITY           SKY/WX    TMP DP  RH WIND       PRES   REMARKS
IRONWOOD       CLOUDY    40  28  62 SW14      29.29F
MANITOWISH WTR CLOUDY    37  31  78 SW12G17   29.32F
ARBOR VITAE    CLOUDY    42  32  69 W9G23     29.34R
EAGLE RIVER    CLEAR     38  29  70 SW13      29.33R
LAND O LAKES   CLOUDY    39  30  70 SW7       29.33R
RHINELANDER    CLEAR     40  31  70 SW14G22   29.36S
PHILLIPS       CLOUDY    38  30  72 SW8G17    29.37S
ANTIGO         CLEAR     39  31  72 SW14      29.38F
TOMAHAWK       CLEAR     39  29  67 W6        29.38R
MERRILL        CLEAR     40  31  69 W10       29.40S
$$

WIZ013-073-210500-
NORTHEAST WISCONSIN

CITY           SKY/WX    TMP DP  RH WIND       PRES   REMARKS
IRON MOUNTAIN  CLEAR     37  28  70 S8        29.31F
MARINETTE      PTCLDY    47  32  56 SW10G20   29.40F
OCONTO         PTCLDY    46  32  57 SW10G17   29.41S
$$

WIZ017-030-035>037-045-210500-
CENTRAL WISCONSIN

CITY           SKY/WX    TMP DP  RH WIND       PRES   REMARKS
MEDFORD        CLEAR     40  29  65 W12G20    29.41R
WAUSAU         CLEAR     42  30  62 SW10      29.40F
MOSINEE        CLOUDY    41  30  65 SW10G17   29.43F
MARSHFIELD     CLEAR     43  28  55 SW14      29.42S
WISC RAPIDS    PTCLDY    47  30  51 SW12      29.47S
STEVENS POINT  CLOUDY    44  29  55 SW14      29.44S
WAUPACA        PTCLDY    49  30  48 SW10G16   29.45S
SHAWANO        CLEAR     46  32  56 SW7       29.41F
CLINTONVILLE   CLEAR     43  30  61 SW8       29.43S
WAUTOMA        CLEAR     49  29  46 SW14        N/A
$$

WIZ038-039-048-051-210500-
FOX VALLEY

CITY           SKY/WX    TMP DP  RH WIND       PRES   REMARKS
NWS GREEN BAY  CLOUDY    47  35  63 SW14G24   29.44F
APPLETON       PTCLDY    45  28  53 SW17G23   29.44F
OSHKOSH        CLEAR     47  33  58 SW18G28   29.46F
FOND DU LAC    CLEAR     48  31  51 SW21G29   29.50F
$$

WIZ022-050-052-210500-
EAST CENTRAL WISCONSIN

CITY           SKY/WX    TMP DP  RH WIND       PRES   REMARKS
EPHRAIM        FAIR      48  32  53 SW14G30   29.39F
WASHINGTON ISL FAIR      44  34  67 SW12G18   29.38F
STURGEON BAY   CLOUDY    49  33  54 SW23G29   29.41F
MANITOWOC      MOCLDY    51  31  46 SW22G31   29.48F
SHEBOYGAN      PTCLDY    49  33  54 SW17G28   29.51F
$$

LMZ563-521-522-541>543-210500-
LAKESHORE

STATION/POSITION TIME  TEMP    WIND        PRES    VSBY  WAVE
                       AIR SEA DIR/SP/G                  HT/PER
                 (UTC) (F)     (DEG/KT/KT) (MB)    (MI)  (FT/S)
SHEBOYGAN LKSHOR 0400   51     210/ 23/ 26  999.5F
KEWAUNEE LKSHORE 0348   52     220/ 16/ 24  996.9F
NORTHPORT PIER   0340   45     170/  5/ 10  995.6F
N MID LAKE BUOY  0350   49 48  200/ 31/ 37  995.3F        10/ 8
SISTER BAY LKSHO 0404   50     230/ 23/ 30   N/A
MENOMINEE LKSHOR 0348   47     200/ 14/ 19  995.5F
$$



USA.gov is the U.S. government's official web portal to all federal, state and local government web resources and services.